Location: Bonham
(33.5773°N, 96.1783°W)
Time: 15:05:01
(UTC+00:00)

Chandra Rocket (1) - Pass Details

Date: 25 November 2025
Orbit: 253 x 10534 km, 28.5° (Epoch: 12 December)

Event Time Altitude Azimuth Distance (km) Brightness Sun altitude
Exits shadow 11:14:33 25° 215° (SW) 1,528 3.8 -22.9°
Maximum altitude 11:16:10 30° 182° (S) 1,662 4.3 -22.6°
Drops below altitude 10° 11:25:33 10° 127° (SE) 5,000 7.6 -20.7°
Sets 11:33:28 0° 121° (ESE) 7,832 9.0 -19.0°
